Stündliche Wetter Otjimbingwe

Heute, 15 April, Donnerstag

Zeit Temperatur Niederschläge Wind Luftdruck Luftfeuchtigkeit
00:00 +21°C° 0 mm 3 m/S 680 mmHg 28%
01:00 +21°C° 0 mm 3 m/S 679 mmHg 29%
02:00 +20°C° 0 mm 3 m/S 679 mmHg 31%
03:00 +19°C° 0 mm 3 m/S 679 mmHg 32%
04:00 +19°C° 0 mm 3 m/S 678 mmHg 34%
05:00 +19°C° 0 mm 3 m/S 679 mmHg 35%
06:00 +19°C° 0 mm 3 m/S 679 mmHg 36%
07:00 +20°C° 0 mm 3 m/S 679 mmHg 37%
08:00 +23°C° 0 mm 5 m/S 680 mmHg 32%
09:00 +27°C° 0 mm 7 m/S 680 mmHg 28%
10:00 +31°C° 0 mm 9 m/S 681 mmHg 24%
11:00 +32°C° 0 mm 9 m/S 680 mmHg 22%
12:00 +33°C° 0 mm 8 m/S 680 mmHg 19%
13:00 +34°C° 0 mm 7 m/S 679 mmHg 17%
14:00 +34°C° 0 mm 7 m/S 679 mmHg 17%
15:00 +34°C° 0 mm 6 m/S 679 mmHg 17%
16:00 +34°C° 0 mm 5 m/S 678 mmHg 18%
17:00 +32°C° 0 mm 4 m/S 678 mmHg 20%
18:00 +29°C° 0 mm 3 m/S 678 mmHg 23%
19:00 +28°C° 0 mm 2 m/S 678 mmHg 26%
20:00 +27°C° 0 mm 2 m/S 679 mmHg 27%
21:00 +26°C° 0 mm 2 m/S 679 mmHg 28%
22:00 +26°C° 0 mm 2 m/S 679 mmHg 29%
23:00 +25°C° 0 mm 2 m/S 679 mmHg 30%

Morgen, 16 April, Freitag

Zeit Temperatur Niederschläge Wind Luftdruck Luftfeuchtigkeit
00:00 +24°C° 0 mm 1 m/S 679 mmHg 31%
01:00 +23°C° 0 mm 1 m/S 679 mmHg 33%
02:00 +23°C° 0 mm 1 m/S 678 mmHg 33%
03:00 +21°C° 0 mm 2 m/S 678 mmHg 32%
04:00 +21°C° 0 mm 2 m/S 678 mmHg 32%
05:00 +21°C° 0 mm 2 m/S 679 mmHg 32%
06:00 +21°C° 0 mm 2 m/S 679 mmHg 31%
07:00 +23°C° 0 mm 2 m/S 679 mmHg 30%
08:00 +25°C° 0 mm 3 m/S 680 mmHg 26%
09:00 +28°C° 0 mm 4 m/S 680 mmHg 21%
10:00 +32°C° 0 mm 4 m/S 681 mmHg 17%
11:00 +33°C° 0 mm 6 m/S 680 mmHg 16%
12:00 +34°C° 0 mm 7 m/S 679 mmHg 15%
13:00 +35°C° 0 mm 8 m/S 679 mmHg 14%
14:00 +34°C° 0 mm 7 m/S 679 mmHg 15%
15:00 +34°C° 0 mm 6 m/S 678 mmHg 16%
16:00 +33°C° 0 mm 6 m/S 678 mmHg 17%
17:00 +32°C° 0 mm 5 m/S 678 mmHg 20%
18:00 +29°C° 0 mm 3 m/S 678 mmHg 23%
19:00 +27°C° 0 mm 2 m/S 678 mmHg 27%
20:00 +27°C° 0 mm 2 m/S 678 mmHg 28%
21:00 +26°C° 0 mm 3 m/S 678 mmHg 29%
22:00 +26°C° 0 mm 3 m/S 678 mmHg 30%
23:00 +25°C° 0 mm 3 m/S 678 mmHg 31%

übermorgen, 17 April, Samstag

Zeit Temperatur Niederschläge Wind Luftdruck Luftfeuchtigkeit
00:00 +24°C° 0 mm 3 m/S 678 mmHg 32%
01:00 +24°C° 0 mm 3 m/S 678 mmHg 33%
02:00 +22°C° 0 mm 3 m/S 678 mmHg 34%
03:00 +22°C° 0 mm 3 m/S 677 mmHg 34%
04:00 +21°C° 0 mm 3 m/S 677 mmHg 35%
05:00 +21°C° 0 mm 3 m/S 678 mmHg 35%
06:00 +21°C° 0 mm 3 m/S 678 mmHg 36%
07:00 +21°C° 0 mm 3 m/S 679 mmHg 36%
08:00 +24°C° 0 mm 6 m/S 679 mmHg 31%
09:00 +28°C° 0 mm 8 m/S 680 mmHg 26%
10:00 +32°C° 0 mm 10 m/S 680 mmHg 20%
11:00 +33°C° 0 mm 9 m/S 680 mmHg 19%
12:00 +34°C° 0 mm 9 m/S 679 mmHg 17%
13:00 +34°C° 0 mm 8 m/S 679 mmHg 15%
14:00 +34°C° 0 mm 8 m/S 678 mmHg 15%
15:00 +34°C° 0 mm 7 m/S 678 mmHg 16%
16:00 +34°C° 0 mm 7 m/S 678 mmHg 16%
17:00 +32°C° 0 mm 6 m/S 678 mmHg 18%
18:00 +29°C° 0 mm 4 m/S 678 mmHg 21%
19:00 +27°C° 0 mm 3 m/S 678 mmHg 24%
20:00 +27°C° 0.1 mm 3 m/S 679 mmHg 26%
21:00 +26°C° 0.1 mm 3 m/S 679 mmHg 29%
22:00 +26°C° 0.1 mm 3 m/S 680 mmHg 32%
23:00 +25°C° 0 mm 3 m/S 680 mmHg 35%

18 April, Sonntag

Zeit Temperatur Niederschläge Wind Luftdruck Luftfeuchtigkeit
00:00 +24°C° 0 mm 3 m/S 680 mmHg 38%
01:00 +24°C° 0 mm 3 m/S 680 mmHg 41%
02:00 +21°C° 0.3 mm 4 m/S 680 mmHg 50%
03:00 +20°C° 0.3 mm 5 m/S 680 mmHg 59%
04:00 +19°C° 0.3 mm 5 m/S 680 mmHg 68%
05:00 +19°C° 0.7 mm 6 m/S 681 mmHg 70%
06:00 +19°C° 0.7 mm 6 m/S 681 mmHg 72%
07:00 +19°C° 0.7 mm 6 m/S 682 mmHg 75%
08:00 +18°C° 1 mm 8 m/S 682 mmHg 73%
09:00 +18°C° 1 mm 10 m/S 682 mmHg 72%
10:00 +19°C° 1 mm 12 m/S 682 mmHg 70%
11:00 +22°C° 0 mm 12 m/S 682 mmHg 62%
12:00 +23°C° 0 mm 12 m/S 681 mmHg 54%
13:00 +26°C° 0 mm 12 m/S 681 mmHg 47%
14:00 +26°C° 0 mm 10 m/S 681 mmHg 43%
15:00 +27°C° 0 mm 9 m/S 680 mmHg 39%
16:00 +27°C° 0 mm 7 m/S 680 mmHg 35%
17:00 +26°C° 0 mm 7 m/S 680 mmHg 42%
18:00 +23°C° 0 mm 6 m/S 680 mmHg 49%
19:00 +21°C° 0 mm 5 m/S 681 mmHg 56%
20:00 +20°C° 0 mm 4 m/S 681 mmHg 58%
21:00 +20°C° 0 mm 4 m/S 681 mmHg 59%
22:00 +20°C° 0 mm 3 m/S 681 mmHg 60%
23:00 +19°C° 0 mm 3 m/S 681 mmHg 61%

19 April, Montag

Zeit Temperatur Niederschläge Wind Luftdruck Luftfeuchtigkeit
00:00 +19°C° 0 mm 3 m/S 681 mmHg 63%
01:00 +18°C° 0 mm 3 m/S 680 mmHg 65%
02:00 +18°C° 0 mm 3 m/S 680 mmHg 66%
03:00 +18°C° 0 mm 3 m/S 680 mmHg 67%
04:00 +18°C° 0 mm 3 m/S 680 mmHg 68%
05:00 +18°C° 0 mm 3 m/S 680 mmHg 66%
06:00 +18°C° 0 mm 4 m/S 680 mmHg 65%
07:00 +19°C° 0 mm 4 m/S 681 mmHg 63%
08:00 +21°C° 0 mm 5 m/S 681 mmHg 56%
09:00 +24°C° 0 mm 7 m/S 681 mmHg 48%
10:00 +27°C° 0 mm 8 m/S 682 mmHg 40%
11:00 +28°C° 0 mm 8 m/S 681 mmHg 37%
12:00 +29°C° 0 mm 7 m/S 681 mmHg 34%
13:00 +32°C° 0 mm 6 m/S 681 mmHg 30%
14:00 +30°C° 0 mm 5 m/S 680 mmHg 29%
15:00 +30°C° 0 mm 4 m/S 680 mmHg 28%
16:00 +30°C° 0 mm 3 m/S 679 mmHg 27%
17:00 +28°C° 0 mm 4 m/S 680 mmHg 35%
18:00 +27°C° 0 mm 5 m/S 680 mmHg 42%
19:00 +25°C° 0 mm 5 m/S 680 mmHg 49%
20:00 +23°C° 0 mm 4 m/S 680 mmHg 50%
21:00 +24°C° 0 mm 3 m/S 680 mmHg 50%
22:00 +23°C° 0 mm 2 m/S 680 mmHg 51%
23:00 +23°C° 0 mm 2 m/S 680 mmHg 52%

20 April, Dienstag

Zeit Temperatur Niederschläge Wind Luftdruck Luftfeuchtigkeit
00:00 +23°C° 0 mm 2 m/S 680 mmHg 53%
01:00 +21°C° 0 mm 2 m/S 679 mmHg 54%
02:00 +21°C° 0 mm 2 m/S 679 mmHg 53%
03:00 +21°C° 0 mm 2 m/S 679 mmHg 53%
04:00 +20°C° 0 mm 3 m/S 679 mmHg 53%
05:00 +20°C° 0 mm 3 m/S 679 mmHg 52%
06:00 +21°C° 0 mm 3 m/S 679 mmHg 50%
07:00 +21°C° 0 mm 3 m/S 680 mmHg 49%
08:00 +23°C° 0 mm 5 m/S 680 mmHg 41%
09:00 +27°C° 0 mm 6 m/S 680 mmHg 32%
10:00 +29°C° 0 mm 7 m/S 681 mmHg 24%
11:00 +30°C° 0 mm 7 m/S 681 mmHg 22%
12:00 +32°C° 0 mm 6 m/S 680 mmHg 21%
13:00 +33°C° 0 mm 5 m/S 680 mmHg 19%
14:00 +33°C° 0 mm 5 m/S 679 mmHg 19%
15:00 +33°C° 0 mm 4 m/S 679 mmHg 19%
16:00 +33°C° 0 mm 4 m/S 679 mmHg 19%
17:00 +30°C° 0 mm 3 m/S 679 mmHg 21%
18:00 +29°C° 0 mm 3 m/S 679 mmHg 24%
19:00 +27°C° 0 mm 2 m/S 679 mmHg 26%
20:00 +26°C° 0 mm 3 m/S 679 mmHg 28%
21:00 +26°C° 0 mm 3 m/S 679 mmHg 29%
22:00 +25°C° 0 mm 3 m/S 679 mmHg 30%
23:00 +24°C° 0 mm 3 m/S 679 mmHg 31%
Mehr zeigen

Wir brauchen deine Erlaubnis

Meteoprog und unser Service Anbieter werden persönliche Daten aufbewahren, so wie Cookies, Geräte Bezeichnung oder ähnliche Technologien von deinem Gerät und Prozess, so wie Persönliche Daten Inhalte und Werbungen, genauso wie social Media und den Verkehr zu analysieren.

  • Aufbewahrung und/oder Zugang zu deiner Geräte Informationen.

    Cookies, Geräte Bezeichnung oder andere Informationen, können aufbewahrt oder Zugang zu deinem Gerät erhalten, für den Grund, der oben angegeben wird.

  • Personalisierte Werbung und Inhalte, Messungen, Einblick in das Publikum und Produkt Entwicklung.

    Werbungen und Inhalte können personalisiert werden, basierend auf ein Profil. Mehr Daten können besser personalisierte Werbungen und Inhalte hinzufügen. Werbung und Inhalte können gezeigt und gemessen werden. Einblicke über das Publikum, welche die Werbung gesehen haben und den Inhalt, können abgeleitet werden. So wie Daten können genutzt werden, um es zu verbessern oder die Benutzer Erfahrung zu verbessern das System und die Software.

Wenn du “Ich stimme zu” klickst, erlaubst du uns, die Cookies zu benutzen die Geräte Bezeichnung, den Web oder ähnliche Technologien zu benutzen. Deine Settings, können in deinem Gerät bei deinem Browser geändert werden.

Für den bestimmten Zweck, berechtigten Interessen beruhen darauf, mehr als auf den Inhalt. Du kannst mehr darüber in unseren Privaten und Cookie Politik lesen.